Istanbul, Turkey

8:19 PM +03 on December 13, 2017 (GMT +0300)
Ataturk

Weather History for LTBA - January, 2013

Change the Weather History Date:

Saturday, January 19, 2013

  Actual Average Record
Temperature  
Mean Temperature 50 °F -  
Max Temperature 54 °F 47 °F 61 °F (2014)
Min Temperature 46 °F 37 °F 26 °F (2012)
Degree Days  
Heating Degree Days 15    
Moisture  
Dew Point 41 °F    
Average Humidity 75    
Maximum Humidity 87    
Minimum Humidity 62    
Precipitation  
Precipitation 0.63 in - - ()
Sea Level Pressure  
Sea Level Pressure 29.63 in    
Wind  
Wind Speed 16 mph ()    
Max Wind Speed 25 mph    
Max Gust Speed 26 mph    
Visibility 5.6 miles    
Events Rain    
Averages and records for this station are not official NWS values.
T = Trace of Precipitation, MM = Missing Value Source: Averaged Metar Reports

Daily Weather History Graph

Daily Weather History Graph

Search for Another Location

Airport or City:

Trip Planner

Search our weather history database for the weather conditions in past years. The results will help you decide how hot, cold, wet, or windy it might be!

Date:

Astronomy

Jan. 19, 2013 Rise Set
Actual Time 7:25 AM EET 5:05 PM EET
Civil Twilight 6:55 AM EET 5:35 PM EET
Nautical Twilight 6:21 AM EET 6:09 PM EET
Astronomical Twilight 5:48 AM EET 6:42 PM EET
Moon 11:21 AM EET (1/19) 12:39 AM EET (1/19)
Length of Visible Light 10h 40m
Length of Day
9h 40m
First Quarter, 54% of the Moon is Illuminated
Jan 19
First Quarter
Jan 27
Full
Feb 3
Last Quarter
Feb 10
New
Feb 17
First Quarter

Hourly Weather History & Observations

Time (EET) Temp. Windchill Dew Point Humidity Pressure Visibility Wind Dir Wind Speed Gust Speed Precip Events Conditions
12:20 AM 50.0 °F - 42.8 °F 76% 29.56 in 6.2 mi South 10.4 mph - N/A Rain Light Rain Showers
12:50 AM 48.2 °F - 42.8 °F 82% 29.56 in 4.3 mi South 17.3 mph - N/A Rain Light Rain Showers
1:20 AM 48.2 °F - 42.8 °F 82% 29.56 in 3.7 mi SSW 25.3 mph - N/A Rain Light Rain Showers
1:50 AM 48.2 °F - 42.8 °F 82% 29.56 in 3.7 mi South 21.9 mph - N/A Rain Light Rain Showers
2:00 AM 48 °F - 43 °F 76% 29.57 in 4 mi South 21.9 mph - - Rain Light Rain Showers
2:20 AM 48.2 °F - 42.8 °F 82% 29.56 in 3.7 mi South 19.6 mph - N/A Rain Light Rain Showers
2:50 AM 48.2 °F - 42.8 °F 82% 29.53 in 3.7 mi South 18.4 mph - N/A Rain Light Rain Showers
3:20 AM 48.2 °F - 41.0 °F 76% 29.53 in 3.7 mi South 13.8 mph - N/A Rain Light Rain Showers
4:20 AM 50.0 °F - 41.0 °F 71% 29.53 in 3.7 mi South 20.7 mph - N/A Rain Light Rain Showers
4:50 AM 50.0 °F - 41.0 °F 71% 29.53 in 3.7 mi SSW 17.3 mph - N/A Rain Light Rain Showers
5:20 AM 48.2 °F - 39.2 °F 71% 29.53 in 6.2 mi SSW 19.6 mph - N/A   Mostly Cloudy
5:50 AM 48.2 °F - 41.0 °F 76% 29.56 in 6.2 mi SSW 12.7 mph - N/A   Mostly Cloudy
6:20 AM 48.2 °F - 41.0 °F 76% 29.56 in 6.2 mi SSW 17.3 mph - N/A   Mostly Cloudy
6:50 AM 48.2 °F - 39.2 °F 71% 29.53 in 6.2 mi South 17.3 mph - N/A   Mostly Cloudy
7:20 AM 48.2 °F - 39.2 °F 71% 29.53 in 6.2 mi South 19.6 mph - N/A   Scattered Clouds
7:50 AM 48.2 °F - 39.2 °F 71% 29.56 in 6.2 mi South 18.4 mph - N/A   Scattered Clouds
8:00 AM 49 °F - 40 °F 62% 29.57 in 6 mi South 18.4 mph - -   Partly Cloudy
8:20 AM 48.2 °F - 41.0 °F 76% 29.56 in 6.2 mi South 15.0 mph - N/A   Scattered Clouds
8:50 AM 50.0 °F - 41.0 °F 71% 29.56 in 6.2 mi South 13.8 mph - N/A   Scattered Clouds
9:20 AM 51.8 °F - 41.0 °F 67% 29.59 in 6.2 mi South 11.5 mph - N/A   Scattered Clouds
9:50 AM 50.0 °F - 39.2 °F 66% 29.59 in 6.2 mi South 9.2 mph - N/A   Scattered Clouds
10:20 AM 51.8 °F - 41.0 °F 67% 29.59 in 6.2 mi South 13.8 mph - N/A   Scattered Clouds
10:50 AM 51.8 °F - 41.0 °F 67% 29.59 in 6.2 mi South 16.1 mph - N/A   Scattered Clouds
11:20 AM 51.8 °F - 41.0 °F 67% 29.59 in 6.2 mi South 15.0 mph - N/A   Scattered Clouds
11:50 AM 53.6 °F - 41.0 °F 62% 29.56 in 6.2 mi South 16.1 mph - N/A   Scattered Clouds
12:20 PM 53.6 °F - 41.0 °F 62% 29.59 in 3.7 mi South 16.1 mph - N/A   Mostly Cloudy
12:50 PM 48.2 °F - 39.2 °F 71% 29.59 in 6.2 mi WNW 13.8 mph - N/A Rain Light Rain Showers
1:20 PM 46.4 °F 39.5 °F 41.0 °F 81% 29.62 in 2.5 mi West 17.3 mph - N/A Rain Rain Showers
1:50 PM 46.4 °F 40.7 °F 42.8 °F 87% 29.59 in 6.2 mi West 12.7 mph - N/A Rain Light Rain Showers
2:00 PM 47 °F - 43 °F 82% 29.62 in 6 mi West 12.7 mph - - Rain Light Rain Showers
2:20 PM 48.2 °F - 42.8 °F 82% 29.62 in 6.2 mi WSW 15.0 mph 26.5 mph N/A Rain Light Rain Showers
2:50 PM 46.4 °F 39.0 °F 41.0 °F 81% 29.65 in 6.2 mi WSW 19.6 mph - N/A Rain Light Rain Showers
3:20 PM 46.4 °F 39.8 °F 42.8 °F 87% 29.62 in 6.2 mi SSW 16.1 mph - N/A Rain Light Rain Showers
3:50 PM 46.4 °F 40.7 °F 42.8 °F 87% 29.65 in 6.2 mi South 12.7 mph - N/A   Mostly Cloudy
4:20 PM 46.4 °F 39.5 °F 39.2 °F 76% 29.65 in 6.2 mi South 17.3 mph - N/A   Mostly Cloudy
4:50 PM 48.2 °F - 41.0 °F 76% 29.65 in 6.2 mi South 13.8 mph - N/A   Mostly Cloudy
5:20 PM 46.4 °F 39.5 °F 41.0 °F 81% 29.68 in 6.2 mi South 17.3 mph - N/A   Mostly Cloudy
5:50 PM 46.4 °F 39.5 °F 41.0 °F 81% 29.68 in 6.2 mi South 17.3 mph - N/A   Mostly Cloudy
6:20 PM 46.4 °F 39.0 °F 41.0 °F 81% 29.68 in 6.2 mi South 19.6 mph - N/A   Mostly Cloudy
6:50 PM 48.2 °F - 41.0 °F 76% 29.71 in 6.2 mi South 20.7 mph - N/A   Scattered Clouds
7:20 PM 48.2 °F - 41.0 °F 76% 29.71 in 6.2 mi South 18.4 mph - N/A   Mostly Cloudy
7:50 PM 48.2 °F - 41.0 °F 76% 29.74 in 6.2 mi SSW 18.4 mph - N/A   Mostly Cloudy
8:00 PM 48 °F - 40 °F 66% 29.74 in 6 mi SSW 18.4 mph - -   Partly Cloudy
8:20 PM 48.2 °F - 41.0 °F 76% 29.74 in 6.2 mi SSW 18.4 mph - N/A   Mostly Cloudy
8:50 PM 48.2 °F - 41.0 °F 76% 29.77 in 6.2 mi SSW 18.4 mph - N/A   Mostly Cloudy
9:20 PM 48.2 °F - 41.0 °F 76% 29.77 in 6.2 mi SSW 16.1 mph - N/A   Mostly Cloudy
9:50 PM 48.2 °F - 41.0 °F 76% 29.77 in 6.2 mi SSW 18.4 mph - N/A   Scattered Clouds
10:20 PM 48.2 °F - 39.2 °F 71% 29.80 in 6.2 mi SSW 19.6 mph - N/A   Scattered Clouds
10:50 PM 48.2 °F - 39.2 °F 71% 29.80 in 6.2 mi SSW 16.1 mph - N/A   Scattered Clouds
11:20 PM 48.2 °F - 39.2 °F 71% 29.80 in 6.2 mi South 15.0 mph - N/A   Scattered Clouds
11:50 PM 48.2 °F - 39.2 °F 71% 29.80 in 6.2 mi SSW 18.4 mph - N/A   Scattered Clouds